Regional Weather Roundup
Issued by NWS Cleveland, OH

Home | Current Version | Previous Version | Graphics & Text | Print | Product List | Glossary On
Versions: 1 2 3 4 5 6 7 8 9 10 11 12 13 14 15 16 17 18 19 20 21 22 23 24 25 26 27 28 29 30 31 32 33 34 35 36 37 38 39 40 41 42 43 44 45 46 47 48 49 50
000
ASUS41 KCLE 270602
RWRCLE
OHIO REGIONAL WEATHER ROUNDUP
NATIONAL WEATHER SERVICE CLEVELAND, OH
100 AM EST TUE JAN 27 2015

NOTE: "FAIR" INDICATES FEW OR NO CLOUDS BELOW 12,000 FEET WITH NO
SIGNIFICANT WEATHER AND/OR OBSTRUCTIONS TO VISIBILITY.

OHZ001>008-015>018-024>027-034-035-043-044-270700-
   NORTHWEST OHIO

CITY           SKY/WX    TMP DP  RH WIND       PRES   REMARKS
DEFIANCE       PTCLDY    11   7  84 CALM      29.97R
FINDLAY        PTCLDY     5   0  79 E3        29.94S
TOLEDO EXPRESS FAIR       8   5  87 CALM      29.96F
TOLEDO EXEC    CLEAR     10   5  80 CALM      29.97F
LIMA           CLOUDY     9   5  84 S5        29.93F FOG     WCI   1
$$

OHZ009>014-019>023-028>033-038-089-270700-
   NORTHEAST OHIO

CITY           SKY/WX    TMP DP  RH WIND       PRES   REMARKS
CLE-HOPKINS    FLURRIES  20  16  84 NE8       29.94F WCI  10
CLE-LAKEFRONT  CLOUDY    21  16  81 NE10      29.92F WCI  10
CUY CO. ARPT   NOT AVBL
LORAIN-ELYRIA  LGT SNOW  20  17  88 N5        29.93S FOG     WCI  13
ASHTABULA      LGT SNOW  20  15  81 N8        29.88F WCI  10
AKRON-CANTON   LGT SNOW  19  14  81 NW9       29.86F WCI   8
WOOSTER        LGT SNOW  16  12  84 NW7       29.89F FOG     WCI   6
MANSFIELD      CLOUDY    13  10  88 W5        29.89F WCI   5
YOUNGSTOWN     FLURRIES  19  14  81 N10       29.84F WCI   7
$$

OHZ042-051>053-060>062-070>072-077>081-270700-
  SOUTHWEST OHIO

CITY           SKY/WX    TMP DP  RH WIND       PRES   REMARKS
CINC-COVINGTON CLOUDY    24  16  71 E5        29.92F WCI  18
CINC-LUNKEN    CLOUDY    22  14  71 NE5       29.97F WCI  16
HAMILTON       CLOUDY    21  13  71 NE5       29.96F WCI  15
DAYTON         CLOUDY    16  12  84 CALM      29.93F
WRIGHT-PAT AFB NOT AVBL
DAYTON GENERAL CLOUDY    17  12  80 E5        29.92F WCI  10
WILMINGTON     CLOUDY    14  10  84 NE7       29.92F WCI   4
$$

OHZ036-037-039>041-045>050-054>059-063>069-073>076-082>088-270700-
  CENTRAL AND SOUTHEAST OHIO

CITY           SKY/WX    TMP DP  RH WIND       PRES   REMARKS
COLUMBUS       MOCLDY    10   7  87 NE3       29.94F
OSU AIRPORT    CLOUDY    10   7  87 CALM      29.94S
BOLTON FIELD   NOT AVBL
RICKENBACK AFB NOT AVBL
NEWARK         CLOUDY    16  10  77 CALM      29.93S
MARION         FOG        1  -3  83 CALM      29.94S VSB 1
LANCASTER      CLOUDY     7   4  87 N3        29.94F FOG
ZANESVILLE     CLOUDY    18  13  80 NW5       29.91F HAZE    WCI  11
NEW PHILLY     LGT SNOW  21  15  78 NW6       29.90F WCI  13
$$



USA.gov is the U.S. government's official web portal to all federal, state and local government web resources and services.